This is the latest recevied weather packets stored in our database for station/object N1YZ. If no packets are shown the sender has not sent any weather packets the latest 10 day(s).
| Time | Temp. | Humidity | Pressure | Rain* | Wind** | Luminosity | Snow |
|---|---|---|---|---|---|---|---|
| 1778088277 | 24.44° C | 83% | 1033.4 hPa | 0 mm | - | 175 W/m² | - |
| 1778087968 | 24.44° C | 82% | 1033.6 hPa | 0 mm | - | 268 W/m² | - |
| 1778087666 | 24.44° C | 83% | 1033.5 hPa | 0 mm | - | 148 W/m² | - |
| 1778087358 | 24.44° C | 82% | 1033.5 hPa | 0 mm | - | 107 W/m² | - |
| 1778087054 | 24.44° C | 81% | 1033.6 hPa | 0 mm | - | 165 W/m² | - |
| 1778086753 | 24.44° C | 80% | 1033.3 hPa | 0 mm | - | 263 W/m² | - |
| 1778086451 | 24.44° C | 82% | 1033.4 hPa | 0 mm | - | 213 W/m² | - |
| 1778086147 | 24.44° C | 81% | 1033.5 hPa | 0 mm | - | 140 W/m² | - |
| 1778085843 | 24.44° C | 82% | 1033.5 hPa | 0 mm | - | 220 W/m² | - |
| 1778085542 | 24.44° C | 82% | 1033.7 hPa | 0 mm | - | 142 W/m² | - |
| 1778085236 | 24.44° C | 81% | 1033.6 hPa | 0 mm | - | 105 W/m² | - |
| 1778084931 | 25° C | 80% | 1033.7 hPa | 0 mm | - | 115 W/m² | - |
| 1778084629 | 25.56° C | 78% | 1033.4 hPa | 0 mm | - | 230 W/m² | - |
| 1778084321 | 25.56° C | 81% | 1033.4 hPa | 0 mm | - | 230 W/m² | - |
| 1778084018 | 25° C | 79% | 1033.2 hPa | 0 mm | - | 215 W/m² | - |
| 1778083715 | 25° C | 80% | 1033.4 hPa | 0 mm | - | 270 W/m² | - |
| 1778083411 | 24.44° C | 82% | 1033.6 hPa | 0 mm | - | 278 W/m² | - |
| 1778083110 | 24.44° C | 82% | 1033.4 hPa | 0 mm | - | 237 W/m² | - |
| 1778082807 | 24.44° C | 81% | 1033.2 hPa | 0 mm | - | 174 W/m² | - |
| 1778081679 | 23.89° C | 83% | 1033.5 hPa | 0 mm | - | 197 W/m² | - |
| 1778081377 | 23.33° C | 83% | 1033.4 hPa | 0 mm | - | 219 W/m² | - |
| 1778081074 | 23.33° C | 83% | 1033.7 hPa | 0 mm | - | 165 W/m² | - |
| 1778080772 | 23.33° C | 83% | 1033.7 hPa | 0 mm | - | 144 W/m² | - |
| 1778080469 | 23.33° C | 83% | 1033.7 hPa | 0 mm | - | 176 W/m² | - |
| 1778080167 | 23.33° C | 84% | 1033.9 hPa | 0 mm | - | 169 W/m² | - |
* Rain latest hour (hover to see other rain measurements)
** Current wind speed in m/s (hover to see current wind gust speed)